�������l�o���
Date,Time,MP-1(��Sv/h),MP-2(��Sv/h),MP-3(��Sv/h),MP-4(��Sv/h),MP-5(��Sv/h),MP-6(��Sv/h),MP-7(��Sv/h),MP-8(��Sv/h),����,����(m/s),���J
2022/09/21,00:00,0.555,0.805,0.515,0.994,0.696,0.331,0.577,0.546,�k�k��,6.2,��
2022/09/21,00:10,0.556,0.804,0.514,0.995,0.699,0.331,0.576,0.546,�k�k��,6.3,��
2022/09/21,00:20,0.555,0.804,0.513,0.995,0.698,0.331,0.577,0.546,�k�k��,6.3,��
2022/09/21,00:30,0.557,0.806,0.514,0.996,0.698,0.332,0.576,0.546,�k�k��,6.2,��
2022/09/21,00:40,0.557,0.805,0.514,0.994,0.698,0.331,0.577,0.546,�k�k��,6.5,��
2022/09/21,00:50,0.557,0.806,0.515,0.994,0.698,0.330,0.576,0.547,�k�k��,5.4,��
2022/09/21,01:00,0.556,0.804,0.514,0.993,0.698,0.333,0.577,0.547,�k�k��,5.6,��
2022/09/21,01:10,0.557,0.805,0.513,0.996,0.698,0.333,0.577,0.545,�k�k��,5.8,��
2022/09/21,01:20,0.557,0.807,0.515,0.996,0.699,0.332,0.576,0.546,�k�k��,5.8,��
2022/09/21,01:30,0.558,0.806,0.515,0.996,0.701,0.331,0.578,0.546,�k�k��,5.9,��
2022/09/21,01:40,0.558,0.806,0.514,0.996,0.699,0.331,0.578,0.546,�k�k��,6.5,��
2022/09/21,01:50,0.556,0.806,0.514,0.997,0.698,0.332,0.579,0.546,�k�k��,6.3,��
2022/09/21,02:00,0.557,0.808,0.515,0.995,0.699,0.331,0.578,0.547,�k�k��,6.3,�L
2022/09/21,02:10,0.557,0.807,0.515,0.998,0.703,0.332,0.577,0.546,�k�k��,7.0,�L
2022/09/21,02:20,0.557,0.807,0.515,0.997,0.701,0.332,0.576,0.547,�k�k��,6.9,��
2022/09/21,02:30,0.556,0.809,0.514,0.995,0.700,0.331,0.578,0.547,�k�k��,6.0,�L
2022/09/21,02:40,0.558,0.808,0.515,0.997,0.699,0.332,0.578,0.547,�k�k��,5.3,�L
2022/09/21,02:50,0.558,0.807,0.517,0.996,0.700,0.331,0.577,0.549,�k�k��,4.4,�L
2022/09/21,03:00,0.555,0.808,0.516,0.997,0.701,0.332,0.579,0.547,�k�k��,5.2,��
2022/09/21,03:10,0.556,0.808,0.516,1.000,0.701,0.332,0.576,0.548,�k�k��,4.9,��
2022/09/21,03:20,0.557,0.807,0.514,0.996,0.702,0.331,0.575,0.547,�k�k��,5.7,��
2022/09/21,03:30,0.559,0.807,0.515,0.997,0.701,0.332,0.577,0.546,�k�k��,5.2,��
2022/09/21,03:40,0.558,0.808,0.515,0.997,0.701,0.332,0.576,0.546,�k�k��,5.6,��
2022/09/21,03:50,0.558,0.808,0.513,0.997,0.702,0.332,0.577,0.546,�k�k��,5.7,�L
2022/09/21,04:00,0.556,0.805,0.514,0.998,0.700,0.332,0.578,0.548,�k�k��,5.8,��
2022/09/21,04:10,0.558,0.808,0.515,0.998,0.702,0.332,0.579,0.547,�k�k��,5.5,��
2022/09/21,04:20,0.557,0.808,0.514,0.997,0.700,0.333,0.578,0.547,�k�k��,5.4,��
2022/09/21,04:30,0.558,0.810,0.516,0.998,0.702,0.332,0.578,0.547,�k�k��,5.7,��
2022/09/21,04:40,0.557,0.809,0.515,0.999,0.703,0.334,0.576,0.547,�k�k��,6.0,��
2022/09/21,04:50,0.557,0.809,0.516,0.999,0.702,0.332,0.578,0.547,�k�k��,6.0,��
2022/09/21,05:00,0.559,0.808,0.515,0.997,0.703,0.334,0.576,0.547,�k�k��,5.6,��
2022/09/21,05:10,0.557,0.808,0.516,0.998,0.702,0.331,0.579,0.547,�k�k��,4.9,��
2022/09/21,05:20,0.559,0.809,0.516,1.000,0.704,0.332,0.578,0.549,�k�k��,5.1,��
2022/09/21,05:30,0.559,0.810,0.515,1.001,0.702,0.333,0.577,0.547,�k�k��,4.6,��
2022/09/21,05:40,0.559,0.808,0.514,0.998,0.702,0.331,0.578,0.546,�k�k��,5.4,�L
2022/09/21,05:50,0.559,0.809,0.515,0.999,0.703,0.331,0.578,0.546,�k��,5.3,��
2022/09/21,06:00,0.558,0.809,0.516,0.999,0.704,0.331,0.579,0.548,�k�k��,5.4,�L
2022/09/21,06:10,0.557,0.809,0.516,0.998,0.703,0.331,0.580,0.547,�k�k��,6.3,��
2022/09/21,06:20,0.559,0.809,0.514,1.000,0.703,0.332,0.580,0.547,�k�k��,5.7,��
2022/09/21,06:30,0.557,0.811,0.515,0.999,0.703,0.332,0.579,0.547,�k�k��,5.4,��
2022/09/21,06:40,0.559,0.810,0.517,0.999,0.705,0.330,0.579,0.546,�k�k��,5.3,��
2022/09/21,06:50,0.559,0.810,0.516,1.000,0.703,0.330,0.578,0.547,�k�k��,5.9,��
2022/09/21,07:00,0.559,0.808,0.517,0.999,0.704,0.331,0.578,0.546,�k�k��,5.4,��
2022/09/21,07:10,0.559,0.813,0.517,1.003,0.703,0.331,0.579,0.548,�k�k��,4.9,��
2022/09/21,07:20,0.558,0.812,0.516,1.000,0.706,0.331,0.579,0.548,�k�k��,4.9,��
2022/09/21,07:30,0.560,0.811,0.517,1.000,0.704,0.331,0.578,0.548,�k,5.3,��
2022/09/21,07:40,0.558,0.810,0.516,0.999,0.705,0.331,0.579,0.548,�k�k��,5.7,��
2022/09/21,07:50,0.559,0.810,0.519,1.000,0.706,0.331,0.579,0.547,�k,6.1,��
2022/09/21,08:00,0.558,0.810,0.518,1.002,0.705,0.332,0.578,0.547,�k,6.3,��
2022/09/21,08:10,0.557,0.811,0.517,1.003,0.706,0.332,0.579,0.547,�k,5.8,��
2022/09/21,08:20,0.558,0.806,0.517,1.002,0.704,0.331,0.579,0.547,�k,6.8,��
2022/09/21,08:30,0.558,0.803,0.518,1.002,0.704,0.331,0.578,0.546,�k,5.8,��
2022/09/21,08:40,0.558,0.803,0.516,1.001,0.704,0.331,0.577,0.546,�k,5.0,��
2022/09/21,08:50,0.557,0.799,0.516,1.003,0.703,0.331,0.579,0.545,�k,6.6,��
2022/09/21,09:00,0.559,0.793,0.516,1.003,0.704,0.332,0.579,0.547,�k,6.0,��
2022/09/21,09:10,0.558,0.791,0.516,1.005,0.703,0.331,0.579,0.546,�k,5.0,��
2022/09/21,09:20,0.558,0.788,0.516,1.006,0.703,0.330,0.578,0.545,�k�k��,4.2,��
2022/09/21,09:30,0.558,0.788,0.516,1.004,0.705,0.330,0.578,0.545,�k�k��,4.5,��
2022/09/21,09:40,0.559,0.786,0.515,1.004,0.705,0.332,0.579,0.546,�k,6.0,��
2022/09/21,09:50,0.558,0.783,0.517,1.003,0.706,0.330,0.580,0.544,�k�k��,4.7,��
2022/09/21,10:00,0.556,0.801,0.517,1.004,0.705,0.330,0.580,0.547,�k�k��,5.8,��
2022/09/21,10:10,0.558,0.805,0.515,1.004,0.704,0.330,0.578,0.545,�k,5.6,��
2022/09/21,10:20,0.561,0.807,0.518,1.004,0.706,0.331,0.579,0.546,�k�k��,5.3,��
2022/09/21,10:30,0.561,0.807,0.518,1.004,0.706,0.332,0.578,0.547,�k�k��,5.7,��
2022/09/21,10:40,0.560,0.807,0.517,1.005,0.708,0.332,0.578,0.546,�k�k��,5.0,��
2022/09/21,10:50,0.560,0.796,0.518,1.005,0.706,0.332,0.579,0.548,�k,5.1,��
2022/09/21,11:00,0.559,0.799,0.518,1.006,0.707,0.332,0.578,0.547,�k�k��,5.3,��
2022/09/21,11:10,0.562,0.797,0.517,1.007,0.706,0.332,0.579,0.548,�k�k��,5.1,��
2022/09/21,11:20,0.562,0.799,0.517,1.006,0.708,0.330,0.578,0.547,�k�k��,5.7,��
2022/09/21,11:30,0.558,0.796,0.520,1.008,0.709,0.330,0.579,0.546,�k�k��,5.7,��
2022/09/21,11:40,0.560,0.797,0.518,1.009,0.709,0.332,0.579,0.548,�k�k��,6.3,��
2022/09/21,11:50,0.563,0.797,0.518,1.005,0.709,0.332,0.579,0.547,�k�k��,7.0,��
2022/09/21,12:00,0.561,0.794,0.519,1.007,0.711,0.331,0.578,0.547,�k�k��,6.5,��
2022/09/21,12:10,0.563,0.796,0.520,1.005,0.709,0.331,0.581,0.549,�k�k��,7.8,��
2022/09/21,12:20,0.562,0.800,0.518,1.009,0.711,0.331,0.581,0.546,�k�k��,8.3,��
2022/09/21,12:30,0.563,0.800,0.520,1.008,0.711,0.331,0.579,0.548,�k�k��,7.4,��
2022/09/21,12:40,0.563,0.805,0.521,1.007,0.713,0.333,0.577,0.549,�k�k��,7.7,��
2022/09/21,12:50,0.565,0.804,0.520,1.007,0.711,0.332,0.580,0.549,�k�k��,7.7,��
2022/09/21,13:00,0.564,0.807,0.523,1.009,0.712,0.332,0.580,0.548,�k�k��,8.6,��
2022/09/21,13:10,0.564,0.806,0.523,1.011,0.713,0.332,0.578,0.547,�k,8.3,��
2022/09/21,13:20,0.563,0.805,0.520,1.009,0.714,0.332,0.580,0.547,�k�k��,7.1,��
2022/09/21,13:30,0.563,0.806,0.520,1.011,0.713,0.333,0.580,0.549,�k�k��,7.4,��
2022/09/21,13:40,0.562,0.805,0.522,1.010,0.713,0.332,0.582,0.548,�k,6.7,��
2022/09/21,13:50,0.562,0.805,0.521,1.012,0.712,0.332,0.580,0.548,�k�k��,6.3,��
2022/09/21,14:00,0.563,0.806,0.522,1.009,0.712,0.331,0.580,0.548,�k,6.8,��
2022/09/21,14:10,0.563,0.804,0.522,1.010,0.712,0.333,0.580,0.549,�k,6.4,��
2022/09/21,14:20,0.563,0.807,0.521,1.011,0.713,0.334,0.581,0.550,�k,7.3,��
2022/09/21,14:30,0.565,0.806,0.521,1.012,0.715,0.332,0.579,0.549,�k,7.4,��
2022/09/21,14:40,0.564,0.807,0.522,1.010,0.713,0.333,0.580,0.550,�k,7.6,��
2022/09/21,14:50,0.567,0.807,0.521,1.011,0.712,0.332,0.580,0.549,�k,7.6,��
2022/09/21,15:00,0.564,0.806,0.520,1.012,0.714,0.332,0.579,0.549,�k,6.6,��
2022/09/21,15:10,0.566,0.807,0.520,1.012,0.714,0.332,0.581,0.548,�k,6.5,��
2022/09/21,15:20,0.565,0.806,0.521,1.011,0.714,0.332,0.580,0.550,�k,6.5,��
2022/09/21,15:30,0.565,0.808,0.522,1.010,0.712,0.331,0.582,0.548,�k,5.8,��
2022/09/21,15:40,0.565,0.808,0.523,1.014,0.712,0.333,0.580,0.549,�k,4.4,��
2022/09/21,15:50,0.566,0.805,0.521,1.013,0.713,0.334,0.580,0.549,�k,4.9,��
2022/09/21,16:00,0.568,0.809,0.522,1.009,0.715,0.334,0.581,0.549,�k,5.5,��
2022/09/21,16:10,0.565,0.810,0.521,1.012,0.715,0.332,0.582,0.550,�k�k��,5.1,��
2022/09/21,16:20,0.567,0.807,0.521,1.014,0.713,0.335,0.581,0.550,�k�k��,5.4,��
2022/09/21,16:30,0.566,0.809,0.522,1.013,0.713,0.335,0.582,0.550,�k,6.1,��
2022/09/21,16:40,0.566,0.806,0.524,1.014,0.715,0.333,0.583,0.550,�k,6.3,��
2022/09/21,16:50,0.567,0.808,0.522,1.012,0.713,0.334,0.581,0.550,�k,5.8,��
2022/09/21,17:00,0.567,0.809,0.520,1.012,0.715,0.333,0.579,0.550,�k�k��,7.4,��
2022/09/21,17:10,0.567,0.809,0.521,1.012,0.713,0.332,0.580,0.550,�k�k��,6.3,��
2022/09/21,17:20,0.566,0.810,0.521,1.012,0.714,0.334,0.581,0.552,�k�k��,6.1,��
2022/09/21,17:30,0.567,0.809,0.521,1.014,0.714,0.334,0.582,0.552,�k�k��,6.1,��
2022/09/21,17:40,0.567,0.811,0.521,1.015,0.715,0.334,0.581,0.550,�k�k��,5.7,��
2022/09/21,17:50,0.568,0.809,0.522,1.014,0.715,0.333,0.582,0.552,�k�k��,5.2,��
2022/09/21,18:00,0.568,0.810,0.523,1.012,0.716,0.335,0.581,0.551,�k�k��,4.7,��
2022/09/21,18:10,0.569,0.810,0.524,1.013,0.717,0.335,0.582,0.550,�k�k��,4.7,��
2022/09/21,18:20,0.567,0.811,0.523,1.015,0.717,0.335,0.581,0.551,�k�k��,4.2,��
2022/09/21,18:30,0.567,0.811,0.523,1.012,0.717,0.334,0.582,0.550,�k�k��,4.6,��
2022/09/21,18:40,0.569,0.811,0.524,1.013,0.716,0.335,0.583,0.551,�k�k��,4.4,��
2022/09/21,18:50,0.569,0.810,0.525,1.012,0.716,0.334,0.582,0.551,�k�k��,4.4,��
2022/09/21,19:00,0.566,0.811,0.523,1.013,0.716,0.334,0.583,0.550,�k�k��,4.7,��
2022/09/21,19:10,0.568,0.811,0.522,1.013,0.716,0.334,0.583,0.550,�k�k��,4.8,��
2022/09/21,19:20,0.568,0.811,0.524,1.014,0.716,0.334,0.584,0.551,�k�k��,4.6,��
2022/09/21,19:30,0.568,0.810,0.523,1.012,0.716,0.333,0.584,0.551,�k�k��,5.2,��
2022/09/21,19:40,0.568,0.812,0.523,1.014,0.717,0.334,0.584,0.551,�k�k��,5.0,��
2022/09/21,19:50,0.569,0.810,0.524,1.014,0.717,0.334,0.582,0.551,�k�k��,5.5,��
2022/09/21,20:00,0.569,0.811,0.523,1.014,0.717,0.333,0.584,0.551,�k�k��,5.4,��
2022/09/21,20:10,0.566,0.810,0.524,1.011,0.715,0.336,0.583,0.551,�k�k��,5.4,��
2022/09/21,20:20,0.568,0.811,0.523,1.013,0.715,0.333,0.583,0.550,�k�k��,5.6,��
2022/09/21,20:30,0.568,0.811,0.523,1.014,0.717,0.333,0.582,0.550,�k�k��,6.0,��
2022/09/21,20:40,0.567,0.808,0.523,1.013,0.717,0.334,0.582,0.550,�k�k��,6.3,��
2022/09/21,20:50,0.567,0.810,0.523,1.014,0.717,0.333,0.584,0.550,�k�k��,6.0,��
2022/09/21,21:00,0.568,0.810,0.523,1.014,0.717,0.334,0.582,0.550,�k�k��,6.8,��
2022/09/21,21:10,0.568,0.810,0.524,1.015,0.717,0.335,0.585,0.551,�k�k��,6.1,��
2022/09/21,21:20,0.568,0.811,0.524,1.015,0.717,0.334,0.583,0.551,�k�k��,6.3,��
2022/09/21,21:30,0.567,0.809,0.524,1.013,0.719,0.334,0.584,0.550,�k�k��,6.1,��
2022/09/21,21:40,0.568,0.809,0.524,1.016,0.717,0.334,0.585,0.552,�k�k��,6.5,��
2022/09/21,21:50,0.568,0.810,0.523,1.014,0.717,0.333,0.584,0.551,�k�k��,6.8,��
2022/09/21,22:00,0.568,0.810,0.525,1.015,0.716,0.334,0.584,0.549,�k�k��,7.0,��
2022/09/21,22:10,0.567,0.810,0.525,1.014,0.717,0.333,0.583,0.550,�k�k��,7.5,��
2022/09/21,22:20,0.566,0.809,0.522,1.016,0.717,0.334,0.585,0.551,�k�k��,6.6,��
2022/09/21,22:30,0.567,0.810,0.525,1.015,0.718,0.334,0.585,0.552,�k�k��,7.1,��
2022/09/21,22:40,0.568,0.809,0.523,1.016,0.716,0.335,0.586,0.550,�k�k��,7.2,��
2022/09/21,22:50,0.568,0.808,0.524,1.014,0.719,0.334,0.588,0.550,�k�k��,7.5,��
2022/09/21,23:00,0.567,0.810,0.523,1.014,0.718,0.334,0.586,0.552,�k�k��,7.6,��
2022/09/21,23:10,0.566,0.808,0.524,1.016,0.715,0.335,0.587,0.550,�k�k��,6.9,��
2022/09/21,23:20,0.567,0.810,0.523,1.017,0.716,0.335,0.585,0.550,�k�k��,7.1,��
2022/09/21,23:30,0.567,0.810,0.522,1.015,0.718,0.335,0.586,0.550,�k�k��,6.3,��
2022/09/21,23:40,0.568,0.807,0.523,1.016,0.717,0.334,0.585,0.552,�k�k��,6.7,��
2022/09/21,23:50,0.567,0.808,0.523,1.017,0.715,0.333,0.585,0.551,�k�k��,7.4,��
